Yeovilton, United Kingdom

3:38 PM GMT on February 20, 2017 (GMT +0000)
Yeovil Radar Navy

Weather History for EGDY - February, 2014

Change the Weather History Date:

Thursday, February 13, 2014

  Actual Average Record
Temperature  
Mean Temperature 40 °F -  
Max Temperature 46 °F 47 °F 60 °F (1998)
Min Temperature 35 °F 35 °F 26 °F (2008)
Degree Days  
Heating Degree Days 24    
Moisture  
Dew Point 33 °F    
Average Humidity 73    
Maximum Humidity 93    
Minimum Humidity 51    
Precipitation  
Precipitation 0.04 in - - ()
Sea Level Pressure  
Sea Level Pressure 29.32 in    
Wind  
Wind Speed 11 mph ()    
Max Wind Speed 20 mph    
Max Gust Speed 28 mph    
Visibility 7.5 miles    
Events Rain , Snow    
Averages and records for this station are not official NWS values.
T = Trace of Precipitation, MM = Missing Value Source: Averaged Metar Reports

Daily Weather History Graph

Daily Weather History Graph

Search for Another Location

Airport or City:

Trip Planner

Search our weather history database for the weather conditions in past years. The results will help you decide how hot, cold, wet, or windy it might be!

Date:

Astronomy

Feb. 13, 2014 Rise Set
Actual Time 7:27 AM GMT 5:22 PM GMT
Civil Twilight 6:52 AM GMT 5:57 PM GMT
Nautical Twilight 6:14 AM GMT 6:36 PM GMT
Astronomical Twilight 5:35 AM GMT 7:14 PM GMT
Moon 4:16 PM GMT (2/13) 6:14 AM GMT (2/13)
Length of Visible Light 11h 04m
Length of Day
9h 55m
Waxing Gibbous, 98% of the Moon is Illuminated
Feb 13
Waxing Gibbous
Feb 14
Full
Feb 22
Last Quarter
Mar 1
New
Mar 8
First Quarter

Hourly Weather History & Observations

Time (GMT) Temp. Windchill Dew Point Humidity Pressure Visibility Wind Dir Wind Speed Gust Speed Precip Events Conditions
12:00 AM 38 °F - 32 °F 71% 29.28 in 9 mi SSW 19.6 mph - -   Partly Cloudy
12:50 AM 39.2 °F 30.2 °F 32.0 °F 75% 29.27 in 6.2 mi SSW 17.3 mph - N/A   Scattered Clouds
1:00 AM 39 °F - 31 °F 65% 29.28 in 9 mi SSW 17.3 mph - -   Scattered Clouds
1:50 AM 41.0 °F 33.9 °F 30.2 °F 65% 29.24 in 6.2 mi SW 12.7 mph - N/A   Partly Cloudy
2:00 AM 40 °F - 31 °F 60% 29.26 in 9 mi SW 12.7 mph - -   Scattered Clouds
2:50 AM 41.0 °F 33.9 °F 32.0 °F 70% 29.24 in 6.2 mi SW 12.7 mph - N/A   Mostly Cloudy
3:00 AM 41 °F - 31 °F 57% 29.25 in 9 mi SW 12.7 mph - -   Mostly Cloudy
3:50 AM 41.0 °F 35.8 °F 32.0 °F 70% 29.21 in 6.2 mi SW 8.1 mph - N/A   Mostly Cloudy
4:00 AM 41 °F - 32 °F 61% 29.23 in 9 mi SW 8.1 mph - -   Scattered Clouds
4:50 AM 41.0 °F 35.2 °F 30.2 °F 65% 29.18 in - SSW 9.2 mph - N/A   Clear
5:00 AM 40 °F - 31 °F 60% 29.20 in 9 mi SSW 9.2 mph - -   Mostly Cloudy
5:50 AM 41.0 °F 34.7 °F 33.8 °F 76% 29.18 in 6.2 mi SSW 10.4 mph - N/A   Mostly Cloudy
6:00 AM 42 °F - 33 °F 61% 29.21 in 9 mi SSW 10.4 mph - -   Scattered Clouds
6:50 AM 41.0 °F 37.1 °F 33.8 °F 76% 29.21 in 6.2 mi WSW 5.8 mph - N/A   Mostly Cloudy
7:00 AM 40 °F - 33 °F 69% 29.22 in 12 mi WSW 5.8 mph - -   Partly Cloudy
7:50 AM 39.2 °F 35.0 °F 33.8 °F 81% 29.21 in 6.2 mi WSW 5.8 mph - N/A   Mostly Cloudy
8:00 AM 39 °F - 34 °F 76% 29.23 in 9 mi WSW 5.8 mph - -   Scattered Clouds
8:50 AM 39.2 °F 33.6 °F 35.6 °F 87% 29.24 in 5.0 mi SW 8.1 mph - N/A Rain Light Rain Showers
9:00 AM 40 °F - 35 °F 75% 29.24 in 5 mi SW 8.1 mph - - Rain Light Rain Showers
9:12 AM 39.2 °F 33.6 °F 35.6 °F 87% 29.24 in 2.5 mi WSW 8.1 mph - N/A Rain Light Rain Showers
9:50 AM 35.6 °F 28.0 °F 33.8 °F 93% 29.27 in 2.5 mi West 10.4 mph - N/A Rain , Snow Light Rain Showers
10:00 AM 35 °F - 34 °F 92% 29.27 in 2 mi West 10.4 mph - - Snow Light Snow Showers
10:01 AM 35.6 °F 29.9 °F 33.8 °F 93% 29.24 in 6.2 mi West 6.9 mph - N/A   Mostly Cloudy
10:21 AM 37.4 °F 32.1 °F 35.6 °F 93% 29.24 in 6.2 mi SSW 6.9 mph - N/A   Mostly Cloudy
10:50 AM 41.0 °F 35.2 °F 35.6 °F 81% 29.27 in 6.2 mi WSW 9.2 mph - N/A   Mostly Cloudy
11:00 AM 40 °F - 36 °F 79% 29.28 in 6 mi WSW 9.2 mph - - Rain Light Freezing Drizzle
11:50 AM 41.0 °F 33.5 °F 33.8 °F 76% 29.30 in 6.2 mi WSW 13.8 mph - N/A   Scattered Clouds
12:00 PM 41 °F - 34 °F 67% 29.30 in 12 mi WSW 13.8 mph - -   Partly Cloudy
12:50 PM 44.6 °F 37.2 °F 33.8 °F 66% 29.30 in 6.2 mi West 17.3 mph - N/A   Scattered Clouds
1:00 PM 44 °F - 33 °F 55% 29.32 in 12 mi West 17.3 mph - -   Scattered Clouds
1:50 PM 44.6 °F 37.4 °F 33.8 °F 66% 29.33 in 6.2 mi WSW 16.1 mph - N/A   Partly Cloudy
2:00 PM 45 °F - 33 °F 51% 29.35 in 12 mi WSW 16.1 mph - -   Scattered Clouds
2:50 PM 44.6 °F 36.9 °F 33.8 °F 66% 29.36 in 6.2 mi West 18.4 mph - N/A Rain Light Rain Showers
3:00 PM 45 °F - 34 °F 54% 29.37 in 12 mi West 18.4 mph - - Rain Light Rain Showers
3:50 PM 44.6 °F 37.8 °F 32.0 °F 61% 29.39 in 2.5 mi WSW 15.0 mph 27.6 mph N/A Rain Rain Showers
4:00 PM 44 °F - 32 °F 52% 29.41 in 2 mi WSW 15.0 mph - - Rain Heavy Rain Showers
4:22 PM 39.2 °F 31.6 °F 35.6 °F 87% 29.42 in 6.2 mi West 12.7 mph - N/A Rain Light Rain Showers
4:50 PM 41.0 °F 34.7 °F 35.6 °F 81% 29.42 in 6.2 mi WSW 10.4 mph - N/A   Scattered Clouds
5:00 PM 41 °F - 35 °F 72% 29.44 in 31 mi WSW 10.4 mph - - Rain Rain
5:50 PM 39.2 °F 35.0 °F 33.8 °F 81% 29.44 in 6.2 mi SW 5.8 mph - N/A   Partly Cloudy
6:00 PM 38 °F - 34 °F 81% 29.46 in 12 mi SW 5.8 mph - -   Partly Cloudy
7:50 PM 37.4 °F 32.8 °F 32.0 °F 81% 29.47 in 6.2 mi South 5.8 mph - N/A   Unknown
8:00 PM 37 °F - 31 °F 72% 29.49 in 31 mi South 5.8 mph - -  
8:50 PM 37.4 °F 31.4 °F 30.2 °F 75% 29.50 in 6.2 mi South 8.1 mph - N/A   Partly Cloudy
9:00 PM 36 °F - 31 °F 75% 29.53 in 19 mi South 8.1 mph - -   Scattered Clouds
9:50 PM 37.4 °F 30.8 °F 32.0 °F 81% 29.50 in 6.2 mi South 9.2 mph - N/A   Unknown
10:00 PM 37 °F - 31 °F 72%  in 17 mi South 9.2 mph - -  
10:50 PM 39.2 °F 32.5 °F 32.0 °F 75% 29.53 in 6.2 mi SSW 10.4 mph - N/A   Unknown
11:00 PM 39 °F - 31 °F 64% 29.54 in 25 mi SSW 10.4 mph - -  
11:50 PM 37.4 °F 31.4 °F 32.0 °F 81% 29.53 in 6.2 mi SSW 8.1 mph - N/A   Partly Cloudy